Tracking 27401 objects as of 4-Jun-2023
HD Live streaming from Space Station
objects crossing your sky now

COSMOS 2251 DEB

Track COSMOS 2251 DEB now!
10-day predictions


NORAD ID: 33938
Int'l Code: 1993-036ET
Perigee: 750.0 km
Apogee: 773.0 km
Inclination: 74.0 °
Period: 99.9 minutes
Semi major axis: 7132 km
RCS: 0.073 m2 (small)
Launch date: June 16, 1993
Source: Commonwealth of Independent States (former USSR) (CIS)
Launch site: PLESETSK MISSILE AND SPACE COMPLEX (PKMTR)

Note: This is SATELLITE DEBRIS
Your satellite tracking list
Your tracking list is empty




NASA's NSSDC Master Catalog

Two Line Element Set (TLE):
1 33938U 93036ET  23154.35121087  .00001723  00000-0  54049-3 0  9997
2 33938  74.0472 123.1319 0016081  74.5367  39.5005 14.41254394750720
Source of the keplerian elements: AFSPC